Location: Shenandoah County Park
(38.9356°N, 78.4524°W)
Time: 09:33:32
(UTC-05:00)

Explorer 7 - All Passes

Search period start: 27 January 2023 00:00
Search period end: 06 February 2023 00:00
Orbit: 480 x 661 km, 50.3° (Epoch: 26 January)

Date Brightness Start Highest point End Pass type
(mag) Time Alt. Az. Time Alt. Az. Time Alt. Az.
27 Jan - 12:39:59 10° SSE 12:42:02 13° SE 12:44:09 10° E daylight
27 Jan - 14:17:27 10° SW 14:21:42 89° SSE 14:26:15 10° NE daylight
27 Jan - 15:58:43 10° WNW 16:02:30 27° NNW 16:06:28 10° NE daylight
27 Jan - 17:40:36 10° NW 17:44:01 20° N 17:47:32 10° NE daylight
27 Jan - 19:21:05 10° NW 19:25:25 35° NNE 19:29:49 10° E visible
27 Jan - 21:01:18 10° WNW 21:06:01 61° SW 21:10:44 10° SE visible
28 Jan - 12:39:40 10° S 12:42:50 21° SE 12:46:08 10° E daylight
28 Jan - 14:18:32 10° WSW 14:22:45 63° NNW 14:27:15 10° NE daylight
28 Jan - 16:00:12 10° WNW 16:03:47 23° NNW 16:07:29 10° NE daylight
28 Jan - 17:41:48 10° NW 17:45:20 21° N 17:48:57 10° ENE daylight
28 Jan - 19:22:02 10° NW 19:26:34 44° NNE 19:31:11 10° E visible
28 Jan - 21:02:28 10° WNW 21:06:57 41° SW 21:11:26 10° SSE visible
29 Jan - 12:39:57 10° SSW 12:43:39 33° SE 12:47:34 10° ENE daylight
29 Jan - 14:19:45 10° WSW 14:23:50 45° NNW 14:28:11 10° NE daylight
29 Jan - 16:01:40 10° WNW 16:05:03 21° N 16:08:34 10° NE daylight
29 Jan - 17:42:54 10° NW 17:46:36 23° NNE 17:50:25 10° ENE daylight
29 Jan - 19:22:59 10° NW 19:27:40 60° NNE 19:32:26 10° ESE visible
29 Jan - 21:03:47 10° WNW 21:07:48 27° SW 21:11:49 10° S visible
30 Jan - 12:40:32 10° SW 12:44:30 51° SE 12:48:46 10° ENE daylight
30 Jan - 14:21:04 10° W 14:24:59 34° NNW 14:29:07 10° NE daylight
30 Jan - 16:03:04 10° NW 16:06:20 19° N 16:09:44 10° NE daylight
30 Jan - 17:43:54 10° NW 17:47:50 27° NNE 17:51:52 10° ENE daylight
30 Jan - 19:23:57 10° NW 19:28:41 84° NE 19:33:30 10° SE visible
30 Jan - 21:05:23 10° W 21:08:35 18° SW 21:11:47 10° S visible
31 Jan - 11:04:46 10° SE 11:05:52 11° SE 11:07:00 10° ESE daylight
31 Jan - 12:41:20 10° SW 12:45:26 80° SE 12:49:49 10° NE daylight
31 Jan - 14:22:27 10° WNW 14:26:09 27° NNW 14:30:01 10° NE daylight
31 Jan - 16:04:21 10° NW 16:07:37 19° N 16:10:58 10° NE daylight
31 Jan - 17:44:50 10° NW 17:49:00 32° NNE 17:53:17 10° E daylight
31 Jan - 19:24:57 10° WNW 19:29:39 68° SW 19:34:24 10° SE visible
31 Jan - 21:07:52 10° WSW 21:09:19 11° SW 21:10:46 10° SW visible
01 Feb - 11:03:50 10° S 11:06:35 18° SE 11:09:26 10° E daylight
01 Feb - 12:42:19 10° WSW 12:46:24 69° NW 12:50:46 10° NE daylight
01 Feb - 14:23:53 10° WNW 14:27:20 23° NNW 14:30:57 10° NE daylight
01 Feb - 16:05:31 10° NW 16:08:52 20° N 16:12:19 10° NE daylight
01 Feb - 17:45:44 10° NW 17:50:07 41° NNE 17:54:37 10° E daylight
01 Feb - 19:26:01 10° WNW 19:30:31 45° SW 19:35:06 10° SSE visible
02 Feb - 11:03:54 10° SSW 11:07:20 28° SE 11:10:57 10° ENE daylight
02 Feb - 12:43:26 10° WSW 12:47:25 48° NNW 12:51:40 10° NE daylight
02 Feb - 14:25:18 10° WNW 14:28:33 20° N 14:31:56 10° NE daylight
02 Feb - 16:06:34 10° NW 16:10:05 22° NNE 16:13:42 10° ENE daylight
02 Feb - 17:46:37 10° NW 17:51:09 54° NNE 17:55:50 10° ESE daylight
02 Feb - 19:27:14 10° WNW 19:31:21 30° SW 19:35:31 10° SSE visible
03 Feb - 11:04:21 10° SSW 11:08:08 44° SE 11:12:08 10° ENE daylight
03 Feb - 12:44:40 10° W 12:48:29 35° NNW 12:52:31 10° NE daylight
03 Feb - 14:26:39 10° NW 14:29:46 19° N 14:33:00 10° NE daylight
03 Feb - 16:07:31 10° NW 16:11:15 25° NNE 16:15:07 10° ENE daylight
03 Feb - 17:47:30 10° NW 17:52:08 76° NE 17:56:54 10° ESE daylight
03 Feb - 19:28:40 10° W 19:32:06 20° SW 19:35:34 10° S visible
04 Feb - 11:05:02 10° SW 11:08:58 71° SE 11:13:10 10° ENE daylight
04 Feb - 12:46:00 10° W 12:49:35 28° NNW 12:53:22 10° NE daylight
04 Feb - 14:27:55 10° NW 14:30:59 18° N 14:34:10 10° NE daylight
04 Feb - 16:08:24 10° NW 16:12:22 30° NNE 16:16:29 10° E daylight
04 Feb - 17:48:25 10° WNW 17:53:02 76° SW 17:57:47 10° SE daylight
04 Feb - 19:30:42 10° W 19:32:48 13° SW 19:34:54 10° SSW visible
05 Feb - 09:27:53 10° SSE 09:30:08 15° SE 09:32:28 10° E daylight
05 Feb - 11:05:54 10° WSW 11:09:51 76° NW 11:14:06 10° NE daylight
05 Feb - 12:47:21 10° WNW 12:50:42 23° NNW 12:54:13 10° NE daylight
05 Feb - 14:29:03 10° NW 14:32:10 19° N 14:35:25 10° NE daylight
05 Feb - 16:09:14 10° NW 16:13:26 37° NNE 16:17:47 10° E daylight
05 Feb - 17:49:25 10° WNW 17:53:53 51° SW 17:58:29 10° SSE daylight
